Погода Большие Уки

Погода Большие Уки : погода сейчас, прогноз погоды и архив. Всё, что Вы хотите узнать о погоде Большие Уки!

Хотите узнать прогноз погоды Большие Уки? Тогда Вам сюда: Погода Большие Уки

Поиск расширенной информации на нашем сайте:

Полезная информация: Все для депиляции воском.

Другие новости

Новости СМИ2

Главная страница сайта

Новости сайта

02.10.2013

Напоминаем, что на нашем новом сайте вы можете получить высокодетализированные прогнозы погоды по пунктам России, СНГ и мира (включающие важные для авиации метеовеличины, такие как направление и скорость ветра, видимость, явления погоды, количество и форма облачности, нижняя и верхняя граница облачности), а также ознакомиться с разнообразными материалами по авиационной метеорологии и подборкой полезных ссылок на эту тему.

Сайт Метеоцентр.Азия посвящён разработке технологий оптимизации авиаметеорологического обслуживания, включая проектирование и перспективное создание нескольких автоматизированных авиаметеорологических систем:
- система выпуска высокодетальных прогностических карт явлений погоды для нижнего воздушного пространства по России и ближнему зарубежью;
- система верификации прогнозов TAF (выпускаемых синоптиками официальных АМСГ РФ и ближнего зарубежья) и AUTOTAF (выпускаемых сайтом Метеоцентр.Азия) - выявление ошибок, онлайн-сопоставление с фактической погодой METAR, автоматическое внесение коррективов в прогнозы при резком отклонении фактической погоды от прогноза, подсчёт оправдываемости прогнозов по элементам и в целом;
- система обработки, анализа и отображения авиаметеорологической информации для применения провайдерами метеорологической информации.

Рекомендуем: форум отзывов о скидках купонаторов Москвы

Погода Большие Уки - сегодня

Время (UTC), дата Ветер
(°,м/с) 
Видим.   Явления Облачность Т
(°С)
Тd
(°С)
f(%) Тe
(°С)
Pmin
(гПа)
dP
(гПа)
Po
(мм)
O2
(г/м3)
Тmin Tmax R s Состояние
почвы
21 17.02.17 220 (ЮЗ) 10 км    ясно 
-15.5 -18.2 80 -20  1019.1  -0.2  757  325           
00 18.02.17 200 (Ю) 10 км    ясно 
-17.8 -20 83 -20  1018.9  -0.3  757  328           
03 18.02.17 200 (Ю) 20000 м    3/0 верхняя 
[Ci fib]
-19.5 -22 81 -22  1018.8  -0.2  757  330  -19.6      65  равномерный
сухой снег
100% 
06 18.02.17 210 (ЮЗ) 20000 м    ясно 
-15.9 -20 71 -20  1018.7  757  325           
09 18.02.17 180 (Ю) 20000 м    ясно 
-13.6 -19.3 62 -17  1018.5  0.1  757  322           
12 18.02.17 200 (Ю) 20000 м    1/0 верхняя 
[Ci fib]
-14.2 -18.2 72 -18  1017.2  -1.3  756  323           
15 18.02.17 190 (Ю) 10 км    ясно 
-16.5 -19.3 79 -20  1016.3  -0.9  755  325    -12.2       
18 18.02.17 180 (Ю) 10 км    4/0 верхняя 
[Ci fib]
-18.1 -20.6 81 -21  1015.9  -0.5  755  327           
21 18.02.17 190 (Ю) 10 км    ясно 
-18.9 -21.2 82 -22  1014.4  -1.4  753  328           
00 19.02.17 180 (Ю) 10 км    ясно 
-20.1 -22.6 80 -24  1012.8  -1.6  752  329           
03 19.02.17 180 (Ю) 20000 м    3/0 верхняя 
[Ci fib]
-20.7 -23.4 79 -24  1011.8  -1  751  329  -20.8      64  равномерный
сухой снег
100% 
06 19.02.17 180 (Ю) 20000 м    ясно 
-17.5 -21.1 73 -21  1010.7  -1  751  325           
09 19.02.17 190 (Ю) 20000 м    1/0 верхняя 
[Ci fib]
-12.7 -18 64 -17  1008.4  -2.1  749  318           
12 19.02.17 180 (Ю) 20000 м    10/0 верхняя 
[Ci]
-12 -17.4 64 -16  1006.7  -1.7  748  317           
15 19.02.17 180 (Ю) 4{10}  10 км  позёмок  10/0 средняя 
[As op]
-13.8 -17.6 73 -18  1004.9  -1.8  746  318    -11.6       
18 19.02.17 180 (Ю) 5{10}  4000 м  слаб. снег  10/0 средняя 
[As op]
-12.6 -15.9 76 -18  1002.2  -2.6  745  316           
21 19.02.17 180 (Ю) 3{10}  4000 м  слаб. снег  10/0 средняя 
[As op]
-12 -14.5 82 -15  999.5  -2.6  743  314           
00 20.02.17 190 (Ю) 4000 м  слаб. снег  10/0 средняя 
[As op]
-11.6 -13.9 83 -16  996.9  -2.6  741  313           
03 20.02.17 230 (ЮЗ) 8000 м  слаб. снег  10/0 средняя 
[As op]
-11.1 -13.3 84 -14  997.5  0.7  741  312  -13.8    65  равномерный
сухой снег
100% 
06 20.02.17 260 (З) 20000 м  позёмок{снег}  10/8 600 м верхняя 
[Sc|Ci]
-9.2 -12.8 75 -12  1000.3  2.8  743  311           
09 20.02.17 270 (З) 4-10{11}  20000 м  позёмок{снег}  9/9 600 м 
[Sc]
-7.3 -13.1 63 -11  1003.6  3.4  746  310           
12 20.02.17 250 (З) 4{10}  20000 м  позёмок{снег}  3/0 средняя, верхняя 
[Ac trans|Ci fib]
-8.4 -16 54 -12  1006.7  748  312           
15 20.02.17 210 (ЮЗ) 10 км    3/0 верхняя 
[Ci fib]
-10.1 -15.5 65 -13  1006.3  -0.5  748  314    -7.2  0.4     
18 20.02.17 190 (Ю) 10 км    4/0 верхняя 
[Ci fib]
-9.5 -13.3 74 -13  1003.6  -2.6  746  312           
21 20.02.17 190 (Ю) 10 км    10/0 средняя 
[As op]
-7.1 -8.8 88 -10  1000.7  -2.8  744  308           
Время (UTC), дата Ветер
(°,м/с) 
Видим.   Явления Облачность Т
(°С)
Тd
(°С)
f(%) Тe
(°С)
Pmin
(гПа)
dP
(гПа)
Po
(мм)
O2
(г/м3)
Тmin Tmax R s Состояние
почвы

Для получения пояснительной информации подведите курсор к названию столбца.

ПОГОДА Большие Уки - архив

Всё, что Вы хотите узнать о погоде Большие Уки - удобно и подробно!

Выберите нужную дату (начиная с 1 января 2015* года) и нажмите кнопку "Найти".
Будут отображены архивные сводки погоды по пункту Большие Уки, начиная с указанной даты.


Отображать данные в формате CSV (для использования в таблицах Excel)


Внимание! Наш архив погоды предназначен исключительно для личного некоммерческого использования в познавательных целях. Если Вам необходимы официальные справки о состоянии погоды (для производственных, юридических, коммерческих и т.п. целей), обращайтесь в органы Росгидромета.

*Примечание: данная дата относится к архиву по метеостанциям СССР (Россия, СНГ, Балтия).
Архив по метеостанциям Зарубежной Европы и Азии (кроме Китая) хранится 10 дней, по другим регионам земного шара (Китай, Африка, Америка, Австралия, Океания) - 1 день.

Большие Уки - район местоположения метеостанции


Название, широта, долгота, высота метеостанции:
Большие Уки 56.9°ш. 72.7°д. 87 м над ур. моря [Российская Федерация]

Дополнительная информация

В oтличие oт бoльшинства пoгoдных сайтoв мы публикуем пoдрoбную метеoинфoрмацию в детальнoм прoфессиoнальнoм фoрмате.

Характеристики температуры и влажнoсти вoздуха измеряются на высoте 2 м в тени вдали oт зданий и деревьев.
Скoрoсть ветра измеряется на высoте 10 м (на урoвне рoста челoвека скoрoсть ветра ниже в 1.5-2 раза). Если метеoстанция нахoдится в гoрoде или в лесу, тo скoрoсть ветра занижена на 2-4 м/с пo сравнению с oткрытым местoм. Скoрoсть ветра над акватoриями крупных рек и oзёр, а также на вершинах хoлмoв на 2-5 м/с выше, чем в oбычных услoвиях.
Атмoсфернoе давление в разных тoчках местнoсти мoжет значительнo oтличаться oт давления на метеoстанции, в зависимoсти oт услoвий рельефа (при пoдъёме на 10 м давление пoнижается примернo на 1 мм рт.ст.).